Location: Newark
(33.9035°S, 18.4112°E)
Time: 15:44:07
(UTC+00:00)

STARLINK-1076 - Pass Details

Date: 24 January 2020
Orbit: 348 x 351 km, 53.0° (Epoch: 18 February)

Event Time Altitude Azimuth Distance (km) Brightness Sun altitude
Drops below altitude 10° 01:04:30 10° 120° (ESE) 1,337 6.4 -28.8°
Exits shadow 01:04:30 10° 120° (ESE) 1,340 6.4 -28.8°
Enters shadow 01:59:47 -70° 314° (NW) 12,306 10.5 -21.4°
